CW2888 Weather Reports


Display with metric or nautical units.
time (UTC)temp
F
wind
direction
speed
MPH
gust
MPH
rain 1hr
in
rain 24hr
in
rain mn
in
humidity
%
barometer
mb
20260508004808 51 168 3.0 6.0 0.00 0.12 0.00 74 1014.9
20260508004308 51 127 2.0 3.0 0.00 0.12 0.00 74 1014.9
20260508003809 51 149 1.0 3.0 0.00 0.12 0.00 74 1014.9
20260508002309 51 147 2.0 5.0 0.00 0.12 0.00 74 1015.0
20260508001809 51 141 2.0 5.0 0.00 0.12 0.00 74 1015.0
20260508000809 51 142 2.0 3.0 0.00 0.12 0.00 74 1015.1
20260508000308 51 146 1.0 3.0 0.00 0.12 0.00 74 1015.1
20260507235809 51 150 2.0 3.0 0.00 0.12 0.00 74 1015.2
20260507235309 51 149 3.0 6.0 0.00 0.12 0.00 75 1015.2
20260507234809 51 146 2.0 2.0 0.00 0.12 0.00 75 1015.2
20260507233809 51 151 3.0 7.0 0.00 0.12 0.00 77 1015.2
20260507233309 51 144 1.0 3.0 0.00 0.12 0.00 78 1015.2
20260507232809 51 124 2.0 3.0 0.00 0.12 0.00 79 1015.2
20260507231809 51 108 1.0 2.0 0.00 0.12 0.00 81 1015.2
20260507231309 51 170 0.0 0.0 0.00 0.12 0.00 81 1015.2
20260507230820 51 170 0.0 0.0 0.00 0.12 0.00 81 1015.2
20260507230309 51 170 0.0 0.0 0.00 0.12 0.00 81 1015.2
20260507225809 51 170 0.0 0.0 0.00 0.12 0.12 81 1015.2
20260507224809 51 170 0.0 0.0 0.00 0.12 0.12 81 1015.3
20260507224310 51 170 0.0 0.0 0.00 0.12 0.12 81 1015.3
20260507223809 51 170 0.0 0.0 0.00 0.12 0.12 81 1015.3
20260507223309 51 170 0.0 0.0 0.00 0.12 0.12 81 1015.3
20260507222308 52 170 0.0 0.0 0.00 0.12 0.12 82 1015.2
20260507221809 52 170 0.0 0.0 0.00 0.12 0.12 82 1015.3
20260507221309 52 170 0.0 0.0 0.00 0.12 0.12 82 1015.3
20260507220809 52 170 0.0 0.0 0.00 0.12 0.12 82 1015.3
20260507220308 52 170 0.0 0.0 0.00 0.12 0.12 82 1015.4
20260507215809 52 170 0.0 0.0 0.00 0.12 0.12 82 1015.4
20260507214809 52 170 0.0 2.0 0.00 0.12 0.12 82 1015.4
20260507214309 52 189 0.0 2.0 0.00 0.12 0.12 82 1015.4
20260507213808 52 195 1.0 2.0 0.00 0.12 0.12 82 1015.4
20260507213309 52 159 0.0 0.0 0.00 0.12 0.12 82 1015.3
20260507212809 52 159 0.0 0.0 0.00 0.12 0.12 82 1015.3
20260507212308 52 159 0.0 0.0 0.00 0.12 0.12 82 1015.3
20260507211809 52 159 0.0 0.0 0.00 0.12 0.12 82 1015.3
20260507211309 52 159 0.0 0.0 0.00 0.12 0.12 81 1015.2
20260507210809 52 159 0.0 0.0 0.00 0.12 0.12 82 1015.2
20260507210310 52 159 1.0 2.0 0.00 0.12 0.12 81 1015.2
20260507205808 52 153 1.0 2.0 0.00 0.12 0.12 81 1015.1
20260507204808 52 134 1.0 2.0 0.00 0.12 0.12 82 1015.1
20260507204309 52 122 0.0 0.0 0.00 0.12 0.12 82 1015.1
20260507203308 53 122 0.0 0.0 0.00 0.12 0.12 82 1015.0
20260507202809 53 122 0.0 0.0 0.00 0.12 0.12 81 1015.0
20260507202309 53 122 0.0 0.0 0.00 0.12 0.12 80 1014.9
20260507201809 53 122 0.0 0.0 0.00 0.12 0.12 80 1015.0
20260507201308 53 122 0.0 0.0 0.00 0.12 0.12 79 1014.9
20260507195809 53 122 0.0 0.0 0.00 0.12 0.12 78 1014.8
20260507195309 53 122 0.0 0.0 0.00 0.12 0.12 78 1014.8
20260507194808 53 122 0.0 0.0 0.00 0.12 0.12 78 1014.7
20260507194308 53 122 0.0 0.0 0.00 0.12 0.12 78 1014.7
20260507193808 53 122 0.0 0.0 0.00 0.12 0.12 78 1014.7
20260507193309 54 122 0.0 0.0 0.00 0.12 0.12 78 1014.7
20260507192808 54 122 0.0 0.0 0.00 0.12 0.12 78 1014.6
20260507192309 54 122 0.0 0.0 0.00 0.12 0.12 78 1014.6
20260507191809 54 122 0.0 0.0 0.00 0.12 0.12 78 1014.6
20260507191309 54 122 0.0 0.0 0.00 0.12 0.12 78 1014.5
20260507190809 54 122 0.0 0.0 0.00 0.12 0.12 79 1014.5
20260507190309 54 122 0.0 1.0 0.00 0.12 0.12 79 1014.5
20260507185809 54 122 0.0 2.0 0.00 0.12 0.12 79 1014.5
20260507185308 54 122 1.0 2.0 0.00 0.12 0.12 79 1014.5
20260507184809 54 71 0.0 1.0 0.00 0.12 0.12 79 1014.6
20260507183809 54 71 1.0 2.0 0.00 0.12 0.12 79 1014.6
20260507183308 54 71 0.0 2.0 0.00 0.12 0.12 79 1014.5
20260507182809 54 71 1.0 2.0 0.00 0.12 0.12 79 1014.5
20260507182308 54 101 1.0 2.0 0.00 0.12 0.12 78 1014.5
20260507181809 54 101 1.0 2.0 0.00 0.12 0.12 78 1014.5
20260507181308 54 86 2.0 5.0 0.00 0.12 0.12 79 1014.5
20260507180308 54 81 1.0 3.0 0.00 0.12 0.12 79 1014.5
20260507175809 54 93 1.0 2.0 0.00 0.12 0.12 80 1014.4
20260507174809 55 109 2.0 3.0 0.00 0.12 0.12 80 1014.5
20260507174309 55 112 2.0 5.0 0.01 0.12 0.12 81 1014.5
20260507173809 55 80 3.0 5.0 0.01 0.12 0.12 81 1014.6
20260507173309 55 96 1.0 5.0 0.02 0.12 0.12 82 1014.5
20260507172808 55 85 3.0 5.0 0.02 0.12 0.12 81 1014.6
20260507172308 55 93 1.0 2.0 0.02 0.12 0.12 82 1014.5
20260507171308 55 68 2.0 3.0 0.02 0.12 0.12 82 1014.5
20260507170808 55 48 2.0 5.0 0.02 0.12 0.12 82 1014.5
20260507170309 55 80 1.0 2.0 0.02 0.12 0.12 83 1014.5
20260507165809 54 50 1.0 2.0 0.02 0.12 0.12 83 1014.5
20260507165309 54 62 1.0 6.0 0.02 0.12 0.12 82 1014.5
20260507164808 54 325 0.0 1.0 0.02 0.12 0.12 82 1014.5
20260507164309 54 332 1.0 2.0 0.02 0.11 0.11 82 1014.5
20260507163809 55 351 1.0 2.0 0.02 0.11 0.11 82 1014.6
20260507163309 55 315 1.0 1.0 0.01 0.10 0.10 82 1014.7
20260507162808 55 307 1.0 2.0 0.00 0.09 0.09 82 1014.6
20260507162309 55 331 1.0 2.0 0.00 0.09 0.09 81 1014.6
20260507161309 55 63 1.0 5.0 0.01 0.09 0.09 80 1014.5
20260507160809 55 66 2.0 5.0 0.01 0.09 0.09 81 1014.5
20260507160308 55 68 1.0 2.0 0.01 0.09 0.09 81 1014.5
20260507155809 55 41 1.0 3.0 0.01 0.09 0.09 81 1014.5
20260507155309 55 69 1.0 3.0 0.01 0.09 0.09 81 1014.5
20260507154309 55 65 0.0 3.0 0.08 0.09 0.09 81 1014.5
20260507153809 55 44 1.0 3.0 0.09 0.09 0.09 81 1014.6
20260507152808 55 44 1.0 3.0 0.09 0.09 0.09 84 1014.6
20260507152309 55 10 1.0 2.0 0.09 0.09 0.09 84 1014.6
20260507151809 55 35 0.0 2.0 0.09 0.09 0.09 83 1014.7
20260507151309 54 5 1.0 5.0 0.09 0.09 0.09 82 1014.7
20260507150809 54 73 2.0 3.0 0.09 0.09 0.09 82 1014.7
20260507150309 54 41 1.0 2.0 0.09 0.09 0.09 83 1014.7
20260507145808 54 15 1.0 2.0 0.09 0.09 0.09 81 1014.7
20260507144809 56 48 1.0 2.0 0.04 0.04 0.04 72 1015.0
20260507144309 56 282 1.0 2.0 0.02 0.02 0.02 70 1014.9
20260507143809 56 284 1.0 3.0 0.01 0.01 0.01 69 1014.8
20260507143308 57 277 1.0 2.0 0.00 0.00 0.00 67 1014.8
20260507142808 57 276 1.0 2.0 0.00 0.00 0.00 66 1014.9
20260507141808 57 168 0.0 0.0 0.00 0.00 0.00 65 1014.9
20260507141309 57 168 0.0 2.0 0.00 0.00 0.00 64 1014.9
20260507140809 57 168 1.0 2.0 0.00 0.00 0.00 64 1015.0
20260507140309 58 167 1.0 5.0 0.00 0.00 0.00 64 1015.0
20260507135809 58 194 1.0 2.0 0.00 0.00 0.00 63 1015.0
20260507135309 58 156 2.0 3.0 0.00 0.00 0.00 62 1014.9
20260507134809 58 144 2.0 5.0 0.00 0.00 0.00 60 1015.0
20260507134309 58 206 3.0 5.0 0.00 0.00 0.00 58 1015.0
20260507133809 58 144 4.0 8.0 0.00 0.00 0.00 58 1015.0
20260507133308 58 175 4.0 9.0 0.00 0.00 0.00 58 1015.0
20260507132808 58 164 4.0 8.0 0.00 0.00 0.00 58 1014.9
20260507132308 58 210 3.0 5.0 0.00 0.00 0.00 58 1015.0
20260507131309 58 226 4.0 7.0 0.00 0.00 0.00 57 1015.0
20260507130809 58 181 3.0 8.0 0.00 0.00 0.00 57 1015.0
20260507130309 59 223 4.0 8.0 0.00 0.00 0.00 56 1015.0
20260507125809 59 225 3.0 7.0 0.00 0.00 0.00 57 1015.0
20260507125309 59 218 3.0 7.0 0.00 0.00 0.00 56 1015.0
20260507124309 58 227 3.0 12.0 0.00 0.00 0.00 57 1015.0
20260507123809 58 224 2.0 7.0 0.00 0.00 0.00 57 1015.0
20260507122808 58 109 2.0 6.0 0.00 0.00 0.00 55 1015.0
20260507122309 58 197 3.0 7.0 0.00 0.00 0.00 54 1015.0
20260507121808 59 120 3.0 7.0 0.00 0.00 0.00 54 1015.0
20260507121308 59 188 2.0 8.0 0.00 0.00 0.00 55 1015.0
20260507120808 59 201 2.0 6.0 0.00 0.00 0.00 56 1015.0
20260507115808 58 193 5.0 9.0 0.00 0.00 0.00 57 1015.1
20260507115309 58 128 3.0 7.0 0.00 0.00 0.00 58 1015.1
20260507114809 58 145 5.0 9.0 0.00 0.00 0.00 59 1015.2
20260507114309 58 175 3.0 8.0 0.00 0.00 0.00 57 1015.1
20260507113308 58 167 3.0 9.0 0.00 0.00 0.00 58 1015.1
20260507112808 58 149 3.0 9.0 0.00 0.00 0.00 59 1015.2
20260507112309 58 111 3.0 7.0 0.00 0.00 0.00 59 1015.1
20260507111309 58 127 5.0 8.0 0.00 0.00 0.00 62 1015.1
20260507110809 58 152 3.0 7.0 0.00 0.00 0.00 62 1015.2
20260507110308 58 112 5.0 14.0 0.00 0.00 0.00 62 1015.3
20260507105809 58 115 5.0 12.0 0.00 0.00 0.00 63 1015.2
20260507105308 58 133 3.0 8.0 0.00 0.00 0.00 62 1015.3
20260507104808 58 118 4.0 8.0 0.00 0.00 0.00 62 1015.3
20260507103808 60 145 2.0 7.0 0.00 0.00 0.00 61 1015.4
20260507103308 59 118 3.0 9.0 0.00 0.00 0.00 64 1015.4
20260507102809 59 192 3.0 9.0 0.00 0.00 0.00 62 1015.4
20260507102309 58 231 3.0 8.0 0.00 0.00 0.00 63 1015.5
20260507101809 58 172 2.0 7.0 0.00 0.00 0.00 66 1015.6
20260507101308 58 149 5.0 9.0 0.00 0.00 0.00 64 1015.6
20260507100808 58 142 3.0 8.0 0.00 0.00 0.00 65 1015.6
20260507095808 57 171 5.0 12.0 0.00 0.00 0.00 65 1015.7
20260507095309 57 138 4.0 7.0 0.00 0.00 0.00 64 1015.6
20260507094809 56 139 3.0 7.0 0.00 0.00 0.00 65 1015.6
20260507094309 56 122 3.0 6.0 0.00 0.00 0.00 70 1015.6
20260507093809 55 125 5.0 8.0 0.00 0.00 0.00 69 1015.5
20260507093309 55 128 2.0 5.0 0.00 0.00 0.00 70 1015.6
20260507092809 54 121 6.0 8.0 0.00 0.00 0.00 71 1015.5
20260507092309 54 91 4.0 8.0 0.00 0.00 0.00 71 1015.5
20260507091808 54 84 4.0 8.0 0.00 0.00 0.00 72 1015.6
20260507091308 53 107 3.0 8.0 0.00 0.00 0.00 71 1015.6
20260507090809 53 85 3.0 9.0 0.00 0.00 0.00 72 1015.7
20260507090309 53 115 3.0 6.0 0.00 0.00 0.00 73 1015.7
20260507085809 52 125 3.0 5.0 0.00 0.00 0.00 74 1015.7
20260507085309 52 128 3.0 6.0 0.00 0.00 0.00 74 1015.7
20260507084808 51 127 3.0 8.0 0.00 0.00 0.00 75 1015.7
20260507084308 51 114 3.0 6.0 0.00 0.00 0.00 75 1015.7
20260507083809 51 107 1.0 6.0 0.00 0.00 0.00 76 1015.7
20260507083311 51 97 2.0 5.0 0.00 0.00 0.00 77 1015.7
20260507082841 50 141 2.0 5.0 0.00 0.00 0.00 76 1015.8
20260507081808 49 99 2.0 5.0 0.00 0.00 0.00 78 1015.7
20260507081309 49 63 2.0 5.0 0.00 0.00 0.00 78 1015.7
20260507080808 49 82 3.0 5.0 0.00 0.00 0.00 78 1015.6
20260507080309 49 110 3.0 5.0 0.00 0.00 0.00 79 1015.6
20260507075309 48 77 2.0 5.0 0.00 0.00 0.00 80 1015.5
20260507074808 48 58 2.0 3.0 0.00 0.00 0.00 80 1015.5
20260507074308 48 123 1.0 3.0 0.00 0.00 0.00 81 1015.5
20260507073809 48 60 1.0 2.0 0.00 0.00 0.00 81 1015.5
20260507073308 48 94 1.0 2.0 0.00 0.00 0.00 81 1015.5
20260507072809 47 80 2.0 3.0 0.00 0.00 0.00 81 1015.4
20260507071809 47 77 2.0 5.0 0.00 0.00 0.00 82 1015.3
20260507071309 47 78 1.0 5.0 0.00 0.00 0.00 82 1015.3
20260507070309 47 92 3.0 7.0 0.00 0.00 0.00 82 1015.3
20260507065308 46 75 2.0 7.0 0.00 0.00 0.00 83 1015.2
20260507064808 46 78 3.0 3.0 0.00 0.00 0.00 83 1015.2
20260507064309 46 93 2.0 3.0 0.00 0.00 0.00 83 1015.3
20260507063808 46 114 2.0 3.0 0.00 0.00 0.00 83 1015.3
20260507062809 46 109 1.0 6.0 0.00 0.00 0.00 83 1015.2
20260507062309 46 98 2.0 5.0 0.00 0.00 0.00 83 1015.2
20260507061809 46 91 2.0 3.0 0.00 0.00 0.00 83 1015.1
20260507061308 46 92 2.0 7.0 0.00 0.00 0.00 83 1015.1
20260507060308 46 95 1.0 5.0 0.00 0.00 0.00 83 1015.1
20260507055809 46 92 4.0 6.0 0.00 0.00 0.00 83 1015.0
20260507055309 46 89 2.0 5.0 0.00 0.00 0.00 84 1015.0
20260507054808 46 97 2.0 6.0 0.00 0.00 0.00 84 1014.9
20260507054308 46 79 2.0 6.0 0.00 0.00 0.00 84 1014.9
20260507053809 46 100 2.0 3.0 0.00 0.00 0.00 84 1014.9
20260507053308 45 83 2.0 5.0 0.00 0.00 0.00 84 1014.9
20260507052809 45 85 1.0 3.0 0.00 0.00 0.00 84 1014.9
20260507051309 45 85 3.0 5.0 0.00 0.00 0.00 84 1014.9
20260507050808 45 90 3.0 5.0 0.00 0.00 0.00 84 1014.9
20260507050309 45 95 2.0 5.0 0.00 0.00 0.00 84 1014.9
20260507045808 45 78 2.0 5.0 0.00 0.00 0.00 84 1014.9
20260507045309 45 71 2.0 5.0 0.00 0.00 0.00 84 1014.9
20260507044808 45 45 2.0 5.0 0.00 0.00 0.00 84 1014.9
20260507044309 45 50 1.0 3.0 0.00 0.00 0.00 84 1014.9
20260507042809 45 76 1.0 2.0 0.00 0.00 0.00 83 1014.8
20260507042308 45 85 2.0 5.0 0.00 0.00 0.00 83 1014.8
20260507041808 46 71 1.0 3.0 0.00 0.00 0.00 83 1014.9
20260507041309 46 64 2.0 3.0 0.00 0.00 0.00 83 1014.8
20260507040809 46 74 2.0 5.0 0.00 0.00 0.00 83 1014.8
20260507035808 46 81 3.0 6.0 0.00 0.00 0.00 82 1014.9
20260507035309 46 88 2.0 5.0 0.00 0.00 0.00 82 1014.9
20260507034808 46 80 2.0 5.0 0.00 0.00 0.00 82 1014.9
20260507034308 46 71 2.0 3.0 0.00 0.00 0.00 82 1014.9
20260507033809 46 65 3.0 6.0 0.00 0.00 0.00 82 1014.9
20260507033309 46 75 2.0 7.0 0.00 0.00 0.00 81 1014.9
20260507032809 46 84 2.0 5.0 0.00 0.00 0.00 81 1014.9
20260507032308 46 85 3.0 5.0 0.00 0.00 0.00 81 1014.9
20260507031309 46 95 3.0 8.0 0.00 0.00 0.00 81 1015.0
20260507030809 46 78 3.0 8.0 0.00 0.00 0.00 80 1014.9
20260507030309 46 80 3.0 8.0 0.00 0.00 0.00 80 1015.0
20260507025309 46 89 3.0 8.0 0.00 0.00 0.00 80 1014.9
20260507024809 47 81 3.0 7.0 0.00 0.00 0.00 80 1014.9
20260507024308 47 82 3.0 5.0 0.00 0.00 0.00 80 1014.9
20260507023809 47 77 2.0 6.0 0.00 0.00 0.00 80 1014.9
20260507023309 47 87 2.0 6.0 0.00 0.00 0.00 79 1014.9
20260507022809 47 92 3.0 7.0 0.00 0.00 0.00 79 1014.9
20260507022309 47 93 2.0 6.0 0.00 0.00 0.00 79 1014.9
20260507021808 47 80 4.0 6.0 0.00 0.00 0.00 79 1014.9
20260507021308 47 102 1.0 5.0 0.00 0.00 0.00 79 1014.9
20260507020808 47 114 3.0 5.0 0.00 0.00 0.00 79 1014.9
20260507020308 47 71 2.0 5.0 0.00 0.00 0.00 79 1014.9
20260507015809 47 91 3.0 6.0 0.00 0.00 0.00 79 1014.9
20260507015308 47 86 2.0 6.0 0.00 0.00 0.00 78 1014.9
20260507014808 47 91 5.0 8.0 0.00 0.00 0.00 78 1014.9
20260507013308 47 88 4.0 7.0 0.00 0.00 0.00 78 1014.9
20260507012808 47 86 3.0 7.0 0.00 0.00 0.00 78 1014.9
20260507012309 47 83 3.0 5.0 0.00 0.00 0.00 78 1014.9
20260507011809 47 90 3.0 5.0 0.00 0.00 0.00 78 1014.9
20260507010809 47 90 3.0 6.0 0.00 0.00 0.00 78 1014.9
20260507010309 48 75 2.0 3.0 0.00 0.00 0.00 78 1014.9
20260507005808 48 99 3.0 5.0 0.00 0.00 0.00 77 1014.9
20260507005308 48 88 4.0 7.0 0.00 0.00 0.00 77 1014.9